Location: Oshawa
(43.9000°N, 78.8670°W)
Time: 01:33:06
(UTC-05:00)

Courier 1B - All Passes

Search period start: 21 November 2017 00:00
Search period end: 01 December 2017 00:00
Orbit: 962 x 1209 km, 28.3° (Epoch: 20 November)

Date Brightness Start Highest point End Pass type
(mag) Time Alt. Az. Time Alt. Az. Time Alt. Az.
21 Nov - 11:42:07 10° SSW 11:47:01 18° SSE 11:51:50 10° SE daylight
21 Nov - 13:34:19 10° SW 13:40:11 24° S 13:45:53 10° SE daylight
21 Nov - 15:28:14 10° WSW 15:33:19 20° SSW 15:38:14 10° SSE daylight
22 Nov - 10:49:14 10° SSW 10:53:24 15° SSE 10:57:33 10° SE daylight
22 Nov - 12:40:40 10° SW 12:46:32 23° S 12:52:16 10° SE daylight
22 Nov - 14:34:10 10° WSW 14:39:44 22° S 14:45:07 10° SE daylight
22 Nov - 16:30:03 10° SW 16:32:40 12° SSW 16:35:14 10° S daylight
23 Nov - 09:56:55 10° S 09:59:50 12° SSE 10:02:44 10° SE daylight
23 Nov - 11:47:11 10° SW 11:52:54 22° S 11:58:31 10° ESE daylight
23 Nov - 13:40:14 10° SW 13:46:06 24° S 13:51:49 10° SE daylight
23 Nov - 15:35:04 10° SW 15:39:09 15° SSW 15:43:08 10° SSE daylight
24 Nov - 10:53:52 10° SSW 10:59:14 20° SSE 11:04:35 10° ESE daylight
24 Nov - 12:46:25 10° SW 12:52:27 25° S 12:58:21 10° SE daylight
24 Nov - 14:40:38 10° WSW 14:45:36 18° SSW 14:50:25 10° SSE daylight
25 Nov - 10:00:48 10° SSW 10:05:36 18° SSE 10:10:26 10° ESE daylight
25 Nov - 11:52:44 10° SW 11:58:47 25° S 12:04:45 10° SE daylight
25 Nov - 13:46:28 10° WSW 13:51:59 21° SSW 13:57:23 10° SSE daylight
25 Nov - 15:43:50 10° SW 15:44:54 10° SSW 15:45:58 10° SSW daylight
26 Nov - 09:08:06 10° S 09:12:01 15° SSE 09:15:57 10° SE daylight
26 Nov - 10:59:12 10° SW 11:05:06 24° S 11:11:00 10° ESE daylight
26 Nov - 12:52:30 10° WSW 12:58:21 23° S 13:04:07 10° SE daylight
26 Nov - 14:47:51 10° SW 14:51:23 14° SSW 14:54:52 10° S daylight
27 Nov - 08:16:12 10° S 08:18:27 11° SSE 08:20:43 10° SE daylight
27 Nov - 10:05:49 10° SW 10:11:26 22° SSE 10:17:06 10° ESE daylight
27 Nov - 11:58:39 10° SW 12:04:41 24° S 12:10:40 10° SE daylight
27 Nov - 13:53:12 10° SW 13:57:49 17° SSW 14:02:22 10° SSE daylight
28 Nov - 09:12:40 10° SSW 09:17:48 19° SSE 09:23:02 10° ESE daylight
28 Nov - 11:04:57 10° SW 11:11:00 25° S 11:17:04 10° SE daylight
28 Nov - 12:58:55 10° WSW 13:04:13 20° SSW 13:09:26 10° SSE daylight
29 Nov - 08:19:46 10° SSW 08:24:12 17° SSE 08:28:43 10° SE daylight
29 Nov - 10:11:23 10° SW 10:17:19 24° S 10:23:20 10° SE daylight
29 Nov - 12:04:53 10° WSW 12:10:34 22° S 12:16:14 10° SE daylight
29 Nov - 14:01:06 10° SW 14:03:35 12° SSW 14:06:02 10° S daylight
30 Nov - 07:27:22 10° S 07:30:39 13° SSE 07:34:00 10° SE daylight
30 Nov - 09:17:59 10° SW 09:23:40 23° S 09:29:28 10° ESE daylight
30 Nov - 11:11:02 10° SW 11:16:54 24° S 11:22:49 10° SE daylight
30 Nov - 13:05:59 10° SW 13:10:00 15° SSW 13:14:01 10° S daylight
